Date String (YYYY-MM-DD hh:mm:ss) UTC,Instrument flags,absolute air pressure of the measurement (hPa),sample flow rate (lpm),inlet stack bypass flow (lpm),air temperature of the measurement (°C),ambient temperature measured by the external sensor (°C),aerosol sample conditioner tube jacket temperature (°C),OPC LED temperature (°C),internal box temperature (°C),relative humidity of the measurement (%),span deviation,mass concentration of particles derived from Lorenz-Mie calculation of OPC scattering (μg/m³),mass concentration of particles derived from Lorenz-Mie calculation of OPC scattering (μg/m³),mass concentration of particles derived from Lorenz-Mie calculation of OPC scattering (μg/m³)
DateTimeUTC,F1_M11,P_M11,Q1_M11,Q2_M11,T1_M11,T2_M11,T3_M11,T4_M11,T5_M11,U1_M11,ZSPAN_M11,X0_M11,X2_M11,X1_M11
2024-01-21 22:00:00,SystemResetWarning,0820.6,5.00,000.00,022.2,021.6,000.0,030.5,023.5,19.6,0002.7,0021.76,0012.62,0011.46
2024-01-21 22:01:00,SystemResetWarning,0820.6,4.98,000.00,022.2,021.6,000.0,030.5,023.5,19.4,0002.7,0021.06,0012.76,0011.58
2024-01-21 22:02:00,SystemResetWarning,0820.5,5.00,000.00,022.2,021.6,000.0,030.5,023.5,19.4,0002.7,0020.13,0013.07,0011.82
2024-01-21 22:03:00,SystemResetWarning,0820.5,5.01,000.00,022.2,021.6,000.0,030.5,023.5,19.4,0002.7,0020.96,0013.41,0012.10
2024-01-21 22:04:00,SystemResetWarning,0820.6,5.01,000.00,022.2,021.6,000.0,030.5,023.5,19.3,0002.9,0021.13,0013.73,0012.37
2024-01-21 22:05:00,SystemResetWarning,0820.5,5.00,000.00,022.2,021.6,000.0,030.5,023.5,19.3,0002.8,0022.71,0014.11,0012.69
2024-01-21 22:06:00,SystemResetWarning,0820.5,4.99,000.00,022.2,021.6,000.0,030.6,023.5,19.3,0002.9,0025.30,0014.57,0013.05
2024-01-21 22:07:00,SystemResetWarning,0820.5,4.99,000.00,022.2,021.6,000.0,030.6,023.5,19.3,0003.3,0026.25,0014.83,0013.29
2024-01-21 22:08:00,SystemResetWarning,0820.6,5.01,000.00,022.2,021.6,000.0,030.6,023.5,19.1,0003.6,0026.95,0015.18,0013.60
2024-01-21 22:09:00,SystemResetWarning,0820.6,5.01,000.00,022.2,021.6,000.0,030.6,023.6,19.1,0003.6,0027.69,0015.59,0013.95
2024-01-21 22:10:00,SystemResetWarning,0820.6,4.99,000.00,022.2,021.6,000.0,030.6,023.6,19.2,0003.3,0028.77,0016.08,0014.37
2024-01-21 22:11:00,SystemResetWarning,0820.6,4.99,000.00,022.3,021.7,000.0,030.6,023.6,19.1,0003.0,0030.32,0016.62,0014.84
2024-01-21 22:12:00,SystemResetWarning,0820.6,5.00,000.00,022.3,021.7,000.0,030.6,023.6,19.2,0003.0,0032.11,0017.05,0015.24
2024-01-21 22:13:00,SystemResetWarning,0820.6,5.00,000.00,022.3,021.7,000.0,030.6,023.6,19.3,0003.3,0033.10,0017.42,0015.62
2024-01-21 22:14:00,SystemResetWarning,0820.6,5.00,000.00,022.3,021.7,000.0,030.6,023.6,19.3,0003.2,0032.99,0017.74,0015.96
2024-01-21 22:15:00,SystemResetWarning,0820.6,5.00,000.00,022.3,021.7,000.0,030.6,023.6,19.2,0003.0,0033.44,0018.06,0016.30
2024-01-21 22:16:00,SystemResetWarning,0820.6,5.00,000.00,022.3,021.7,000.0,030.6,023.6,18.9,0002.7,0033.23,0018.38,0016.59
2024-01-21 22:17:00,SystemResetWarning,0820.6,5.01,000.00,022.3,021.7,000.0,030.6,023.6,18.9,0002.8,0032.30,0018.65,0016.82
2024-01-21 22:18:00,SystemResetWarning,0820.6,5.00,000.00,022.3,021.7,000.0,030.6,023.7,18.9,0003.0,0032.44,0018.89,0017.07
2024-01-21 22:19:00,SystemResetWarning,0820.6,5.00,000.00,022.3,021.7,000.0,030.6,023.6,19.0,0002.9,0032.35,0019.05,0017.26
2024-01-21 22:20:00,SystemResetWarning,0820.6,5.00,000.00,022.3,021.7,000.0,030.6,023.6,18.8,0002.6,0032.33,0019.20,0017.44
2024-01-21 22:21:00,SystemResetWarning,0820.6,5.00,000.00,022.3,021.7,000.0,030.6,023.6,18.8,0002.9,0032.28,0019.25,0017.54
2024-01-21 22:22:00,SystemResetWarning,0820.6,4.99,000.00,022.3,021.7,000.0,030.7,023.7,18.8,0003.1,0031.95,0019.27,0017.60
2024-01-21 22:23:00,SystemResetWarning,0820.6,5.00,000.00,022.3,021.7,000.0,030.7,023.7,18.7,0003.4,0030.92,0019.39,0017.71
2024-01-21 22:24:00,SystemResetWarning,0820.6,5.01,000.00,022.3,021.7,000.0,030.7,023.7,18.8,0003.3,0030.56,0019.54,0017.82
2024-01-21 22:25:00,SystemResetWarning,0820.6,5.00,000.00,022.3,021.8,000.0,030.7,023.7,18.8,0003.3,0031.22,0019.69,0017.94
2024-01-21 22:26:00,SystemResetWarning,0820.6,5.00,000.00,022.4,021.8,000.0,030.7,023.8,18.8,0003.4,0031.54,0019.87,0018.06
2024-01-21 22:27:00,SystemResetWarning,0820.6,5.00,000.00,022.4,021.8,000.0,030.7,023.8,18.7,0003.5,0032.84,0019.98,0018.15
2024-01-21 22:28:00,SystemResetWarning,0820.7,5.00,000.00,022.4,021.8,000.0,030.7,023.8,18.6,0003.5,0032.71,0020.02,0018.25
2024-01-21 22:29:00,SystemResetWarning,0820.7,5.00,000.00,022.4,021.8,000.0,030.7,023.8,18.7,0003.2,0031.96,0020.15,0018.39
2024-01-21 22:30:00,SystemResetWarning,0820.7,5.00,000.00,022.4,021.8,000.0,030.7,023.8,18.7,0003.0,0032.73,0020.34,0018.56
2024-01-21 22:31:00,SystemResetWarning,0820.8,5.00,000.00,022.4,021.8,000.0,030.7,023.8,18.8,0003.1,0033.03,0020.62,0018.79
2024-01-21 22:32:00,SystemResetWarning,0820.8,5.00,000.00,022.4,021.8,000.0,030.7,023.8,18.8,0003.2,0033.14,0020.85,0018.99
2024-01-21 22:33:00,SystemResetWarning,0820.7,5.00,000.00,022.4,021.8,000.0,030.7,023.8,18.9,0003.3,0032.69,0021.05,0019.16
2024-01-21 22:34:00,SystemResetWarning,0820.8,5.00,000.00,022.5,021.8,000.0,030.7,023.9,18.8,0003.1,0033.53,0021.22,0019.30
2024-01-21 22:35:00,SystemResetWarning,0820.8,5.00,000.00,022.5,021.8,000.0,030.7,023.9,18.8,0003.0,0034.05,0021.28,0019.39
2024-01-21 22:36:00,SystemResetWarning,0820.8,5.00,000.00,022.5,021.9,000.0,030.8,023.9,18.8,0003.0,0034.07,0021.31,0019.47
2024-01-21 22:37:00,SystemResetWarning,0820.8,5.00,000.00,022.5,021.9,000.0,030.8,023.9,18.8,0003.0,0034.17,0021.39,0019.55
2024-01-21 22:38:00,SystemResetWarning,0820.7,5.00,000.00,022.5,021.9,000.0,030.8,023.9,18.8,0003.1,0033.41,0021.41,0019.62
2024-01-21 22:39:00,SystemResetWarning,0820.8,5.00,000.00,022.5,021.9,000.0,030.8,023.9,18.8,0003.0,0033.01,0021.44,0019.67
2024-01-21 22:40:00,SystemResetWarning,0820.7,4.99,000.00,022.5,021.9,000.0,030.8,023.9,18.8,0003.4,0032.80,0021.47,0019.70
2024-01-21 22:41:00,SystemResetWarning,0820.8,5.00,000.00,022.5,021.9,000.0,030.8,023.9,18.8,0003.5,0032.38,0021.41,0019.62
2024-01-21 22:42:00,SystemResetWarning,0820.8,5.01,000.00,022.5,021.9,000.0,030.8,024.0,18.8,0003.5,0032.75,0021.21,0019.50
2024-01-21 22:43:00,SystemResetWarning,0820.7,5.00,000.00,022.6,021.9,000.0,030.8,024.0,18.8,0003.4,0032.84,0021.06,0019.39
2024-01-21 22:44:00,SystemResetWarning,0820.7,5.00,000.00,022.6,021.9,000.0,030.8,024.0,18.8,0003.3,0032.91,0021.03,0019.34
2024-01-21 22:45:00,SystemResetWarning,0820.7,5.00,000.00,022.6,021.9,000.0,030.8,024.0,18.8,0003.4,0033.17,0020.92,0019.30
2024-01-21 22:46:00,SystemResetWarning,0820.7,5.00,000.00,022.6,022.0,000.0,030.8,024.0,18.9,0003.5,0032.77,0020.88,0019.29
2024-01-21 22:47:00,SystemResetWarning,0820.7,5.00,000.00,022.6,022.0,000.0,030.9,024.0,18.9,0003.7,0032.71,0020.93,0019.30
2024-01-21 22:48:00,SystemResetWarning,0820.7,4.99,000.00,022.6,022.0,000.0,030.9,024.0,18.9,0003.7,0033.03,0020.93,0019.34
2024-01-21 22:49:00,SystemResetWarning,0820.8,5.00,000.00,022.6,022.0,000.0,030.9,024.0,18.8,0003.6,0033.72,0021.02,0019.38
2024-01-21 22:50:00,SystemResetWarning,0820.7,5.00,000.00,022.6,022.0,000.0,030.9,024.0,18.7,0003.7,0034.68,0021.16,0019.46
2024-01-21 22:51:00,SystemResetWarning,0820.7,4.99,000.00,022.6,022.0,000.0,030.9,024.0,18.7,0003.5,0035.02,0021.18,0019.50
2024-01-21 22:52:00,SystemResetWarning,0820.7,4.99,000.00,022.6,022.0,000.0,030.9,024.0,18.8,0003.2,0034.96,0021.22,0019.60
2024-01-21 22:53:00,SystemResetWarning,0820.8,4.99,000.00,022.7,022.0,000.0,030.9,024.1,18.6,0003.2,0034.39,0021.35,0019.73
2024-01-21 22:54:00,SystemResetWarning,0820.8,5.00,000.00,022.7,022.0,000.0,030.9,024.1,18.3,0003.2,0035.07,0021.54,0019.88
2024-01-21 22:55:00,SystemResetWarning,0820.8,5.01,000.00,022.7,022.1,000.0,030.9,024.1,18.1,0003.3,0035.43,0021.68,0019.99
2024-01-21 22:56:00,SystemResetWarning,0820.8,5.00,000.00,022.7,022.1,000.0,030.9,024.1,17.9,0003.2,0035.44,0021.88,0020.10
2024-01-21 22:57:00,SystemResetWarning,0820.8,5.00,000.00,022.7,022.1,000.0,031.0,024.1,18.0,0003.4,0036.83,0022.00,0020.19
2024-01-21 22:58:00,SystemResetWarning,0820.7,5.00,000.00,022.7,022.1,000.0,031.0,024.1,18.1,0003.4,0037.08,0022.06,0020.27
2024-01-21 22:59:00,SystemResetWarning,0820.8,5.00,000.00,022.7,022.1,000.0,031.0,024.1,18.0,0003.5,0037.88,0022.12,0020.33
